Location: *
(31.2983°S, 151.4094°E)
Time: 00:49:40
(UTC+00:00)

Cosmos 1763 Rocket - Pass Details

Date: 25 August 2019
Orbit: 732 x 781 km, 74.0° (Epoch: 18 September)

Event Time Altitude Azimuth Distance (km) Brightness Sun altitude
Exits shadow 19:16:55 - 217° (SW) 2,435 5.7 -13.9°
Reaches altitude 10° 19:17:26 10° 220° (SW) 2,256 5.5 -13.8°
Maximum altitude 19:21:49 30° 280° (W) 1,313 4.2 -12.9°
Drops below altitude 10° 19:26:11 10° 339° (NNW) 2,237 5.8 -11.9°
Sets 19:28:46 0° 350° (N) 3,156 6.6 -11.4°
